Вернуться в каталог

COSMOS 1937

АктивенНавигацияLEO
NORAD 19038·PAYLOAD·🇷🇺 Russia

Запущен Apr 5, 1988 с Plesetsk Cosmodrome

Loading…

Ближайшие Пролёты (ближайшие 24 часа)

TLE

СвежийSource: Space-Track

Эпоха: Sep 14, 2026, 21:46 UTC

1 19038U 88029A   26257.90716517  .00000069  00000-0  32572-4 0  9994
2 19038  74.0452 299.9744 0023937   0.7647 177.4293 14.36167543 12610

Отслеживайте COSMOS 1937 в реальном времени с AllMySat

Download on the App Store